EUTELSAT 172B (42741 NORAD) Tracking and Keplerian Element Data

This shows tracking and keplerian element data for the satellite.

Feedback or suggestion? Click here.




ElementValue
Catalog42741
NameEUTELSAT 172B
Epoch Orbit2008
Epoch Day269.77664245
Epoch Year2022
RAAN167.6425
Inclination0.037
Eccentricity2.11E-05
Argument of Perigee250.4726
Mean Anonmoly39.0547
Mean Motion1.00272401
Decay Rate-2E-08
L11 42741U 17029B 22269.77664245 -.00000002 00000+0 00000+0 0 9990
L22 42741 0.0370 167.6425 0000211 250.4726 39.0547 1.00272401 20086

Live tracking and technical data element details for EUTELSAT 172B (NORAD 42741). EUTELSAT 172B can be tracked NOW for your location showing map with azimuth and elevation plus other details from your city location.

Track the satellite on the map from your city or location and see movement details for azimuth, elevation, latitude, longitude, range, height, and movement on the map or in text.







IsCatalogInMostPopularTable: catalog: 42741, numindb: 598
Update: records affected: 1



GetName: 42741 EUTELSAT 172B

Hit Count: updated at: Fri, 30 Sep 2022 03:14:13 GMT